TimePDT,TemperatureF,Dew PointF,Humidity,Sea Level PressureIn,VisibilityMPH,Wind Direction,Wind SpeedMPH,Gust SpeedMPH,PrecipitationIn,Events,Conditions,WindDirDegrees,DateUTC
12:56 AM,70.0,35.1,28,29.95,10.0,West,16.1,-,N/A,,Clear,260,2013-03-19 07:56:00
1:56 AM,70.0,35.1,28,29.94,10.0,WSW,9.2,-,N/A,,Clear,250,2013-03-19 08:56:00
2:56 AM,64.0,35.1,34,29.92,10.0,Variable,4.6,-,N/A,,Clear,0,2013-03-19 09:56:00
3:56 AM,62.1,34.0,35,29.91,10.0,South,5.8,-,N/A,,Clear,180,2013-03-19 10:56:00
4:56 AM,57.0,36.0,45,29.93,10.0,South,4.6,-,N/A,,Clear,180,2013-03-19 11:56:00
5:56 AM,55.9,41.0,57,29.96,10.0,East,8.1,-,N/A,,Clear,80,2013-03-19 12:56:00
6:56 AM,57.0,46.0,67,29.98,10.0,ESE,5.8,-,N/A,,Mostly Cloudy,120,2013-03-19 13:56:00
7:56 AM,61.0,48.0,62,29.99,10.0,SSE,3.5,-,N/A,,Mostly Cloudy,150,2013-03-19 14:56:00
8:56 AM,68.0,51.1,55,30.01,8.0,SSE,3.5,-,N/A,,Scattered Clouds,150,2013-03-19 15:56:00
9:56 AM,73.0,46.9,39,30.00,10.0,Calm,Calm,-,N/A,,Scattered Clouds,0,2013-03-19 16:56:00
10:56 AM,80.1,39.9,24,30.01,10.0,Variable,3.5,-,N/A,,Scattered Clouds,0,2013-03-19 17:56:00
11:56 AM,82.0,46.0,28,30.00,10.0,North,6.9,-,N/A,,Scattered Clouds,10,2013-03-19 18:56:00
12:56 PM,84.9,37.9,19,29.97,10.0,Variable,3.5,-,N/A,,Mostly Cloudy,0,2013-03-19 19:56:00
1:56 PM,88.0,41.0,19,29.95,10.0,Variable,5.8,-,N/A,,Mostly Cloudy,0,2013-03-19 20:56:00
2:56 PM,90.0,33.1,13,29.94,10.0,NNE,9.2,18.4,N/A,,Mostly Cloudy,20,2013-03-19 21:56:00
3:56 PM,91.0,32.0,12,29.93,10.0,North,8.1,-,N/A,,Mostly Cloudy,360,2013-03-19 22:56:00
4:56 PM,90.0,33.1,13,29.93,10.0,NE,8.1,-,N/A,,Mostly Cloudy,40,2013-03-19 23:56:00
5:56 PM,87.1,34.0,15,29.93,10.0,Calm,Calm,-,N/A,,Mostly Cloudy,0,2013-03-20 00:56:00
6:56 PM,81.0,41.0,24,29.95,10.0,WSW,12.7,-,N/A,,Mostly Cloudy,240,2013-03-20 01:56:00
7:56 PM,77.0,41.0,28,29.96,10.0,SW,12.7,-,N/A,,Mostly Cloudy,230,2013-03-20 02:56:00
8:56 PM,75.9,42.1,30,29.99,10.0,West,15.0,-,N/A,,Scattered Clouds,260,2013-03-20 03:56:00
9:56 PM,73.9,41.0,30,30.00,10.0,WSW,10.4,-,N/A,,Partly Cloudy,240,2013-03-20 04:56:00
10:56 PM,71.1,39.0,31,30.01,10.0,WSW,9.2,-,N/A,,Partly Cloudy,250,2013-03-20 05:56:00
11:56 PM,64.9,37.9,37,30.01,10.0,West,5.8,-,N/A,,Clear,270,2013-03-20 06:56:00